map of FEN home
Great Circle Mapper logo
FEN - Airport
Location
City:  Fernando de Noronha, FN, Pernambuco, Brazil
ICAO:SBFN
IATA:FEN

Details
Type:Airport (Aerodrome, Airfield)
Latitude:351'18"S (-3.854927)
Longitude:3225'24"W (-32.423335)
Datum:WGS 1984
Elevation:193 ft (59 m)
Variation:20.14W (WMM2015 magnetic declination)
0.07 annual change
Runways:1
Longest:6053 × 148 ft (1845 × 45 m), paved

Time
Time Zone:UTC-3
Local Time:

Weather
METAR:SBFN 250900Z 14015KT 9999 BKN018 26/22 Q1014
TAF:SBFN 250300Z 2506/2518 13012KT 8000 BKN015 TN25/2508Z TX29/2515Z
TEMPO 2514/2518 4000 RA BKN009
RMK PEA

Related Locations
Nearby:
Farthest:TKK: 12057 mi / 19404 km
Weno Island [Chuuk Intl (Truk Intl)], TRK, FM

Find:

   beyond  
but within

Other Information
Maps:
NOTAMs:
Links:
Sources:

  
flag of Brazil
flag of Pernambuco
flag of Fernando de Noronha
  

Sectional Chart

Flight Planning
at skyvector.com

Satellite Image

Google Maps Satellite view

 

Copyright © 2004-2016 Karl L. Swartz. All rights reserved.
The Great Circle Mapper name and logo are trademarks of the Great Circle Mapper.
All other trademarks mentioned herein belong to their respective owners.
Please see credits for attibutions and further copyright information.

  Follow gcmap on Facebook Follow gcmap on Twitter Follow gcmap on Google+ GCmap on LinkedIn

hCard Microformat

Geo Microformat